Torna al catalogo

CZ-4C SEP MOTOR COVER

AttivoSSO
NORAD 49047·DEBRIS·🇨🇳 China
Questo nome del satellite non è ancora stato confermato da fonti ufficiali.

Lanciato Jul 4, 2021 da Jiuquan Satellite Launch Center

Loading…

Prossimi Passaggi (prossime 24 ore)

TLE

AggiornatoSource: Space-Track

Epoca: Sep 14, 2026, 06:45 UTC

1 49047U 21062E   26257.28125064  .00000047  00000-0  36980-4 0  9996
2 49047  98.6611 275.9567 0004990 152.0717 208.0733 14.27882675268518

Traccia CZ-4C SEP MOTOR COVER in tempo reale con AllMySat

Download on the App Store